Lexington Weather

Lexington, Massachusetts, USA

47°F
10/22/2019 2:51am 
  • Lexington Conditions: Mostly cloudy
  • Temperature: 47.1°F / 8.4°CWarmer 1.2°F than last hour.
  • Dew Point: 45.7°FIncreased 1.8°Fsince last hour.
  • Relative Humidity: 95%Increased 2.0% since last hour.
  • Wind: Calm, 10-min avg: Calm, gust: None
  • Barometer: 30.12 in Steady
  • Visibility: 9 miles
  • Rain Today: 0.00 in
  •   

Regional Weather Roundup
for Boston, MA

        
000
ASUS41 KBOX 201810
RWRBOX

REGIONAL WEATHER ROUNDUP
NATIONAL WEATHER SERVICE BOSTON/NORTON MA
200 PM EDT SUN OCT 20 2019

NOTE:  "FAIR" INDICATES FEW OR NO CLOUDS BELOW 12,000 FEET WITH NO 
SIGNIFICANT WEATHER AND/OR OBSTRUCTIONS TO VISIBILITY.

MAZALL-201900-
EASTERN MASSACHUSETTS
  
CITY           SKY/WX    TMP DP  RH WIND       PRES   REMARKS
BOSTON         PTSUNNY   58  46  64 E7        30.07F                  
6HR MIN TEMP:  45; 6HR MAX TEMP:  60;                                

BEVERLY        FAIR      59  42  53 S5        30.07F                  
LAWRENCE       FAIR      60  42  51 E6        30.08F                  
BEDFORD        PTSUNNY   63  38  39 S7        30.06S                  
BLUE HILL      NOT AVBL                                               
NORWOOD        FAIR      64  39  39 S5        30.07S                  
MARSHFIELD     FAIR      63  48  59 SE8       30.06S                  
PLYMOUTH       FAIR      61  47  59 S6        30.07F                  
TAUNTON        FAIR      65  46  50 S6        30.06F                  
NEW BEDFORD    FAIR      60  48  64 S8        30.06S                  
$$

MAZALL-201900-
CAPE COD AND THE ISLANDS
  
CITY           SKY/WX    TMP DP  RH WIND       PRES   REMARKS
FALMOUTH       SUNNY     61  43  51 S9        30.07S                  
HYANNIS        FAIR      60  43  53 SE7       30.06F                  
CHATHAM        NOT AVBL                                               
PROVINCETOWN   FAIR      60  49  66 VRB6        N/A                   
NANTUCKET      FAIR      57  48  72 SE9       30.08F                  
MARTHAS VNYRD  FAIR      59  44  57 S8        30.07F                  
$$
 
MAZALL-201900-
CENTRAL AND WESTERN MASSACHUSETTS
  
CITY           SKY/WX    TMP DP  RH WIND       PRES   REMARKS
WORCESTER      FAIR      55  40  56 SW6       30.07S                  
6HR MIN TEMP:  42; 6HR MAX TEMP:  55;                                

FITCHBURG      FAIR      58  38  47 E5        30.07F                  
ORANGE         FAIR      58  38  47 S8        30.06F                  
SPRINGFIELD    CLOUDY    57  40  53 CALM      30.05F                  
WESTFIELD      FAIR      56  42  59 SW5       30.07S                  
NORTH ADAMS    FAIR      57  36  45 VRB3      30.05R                  
PITTSFIELD     CLOUDY    55  39  54 S7        30.03S                  
$$
 
RIZALL-201900-
RHODE ISLAND
  
CITY           SKY/WX    TMP DP  RH WIND       PRES   REMARKS
PROVIDENCE     PTSUNNY   60  40  47 S6        30.08S                  
6HR MIN TEMP:  39; 6HR MAX TEMP:  60;                                

NEWPORT        FAIR      60  48  64 S7        30.07S                  
BLOCK ISLAND   FAIR      57  48  72 SE8       30.07F                  
SMITHFIELD     FAIR     N/A N/A N/A SW5       30.08R                  
WESTERLY       FAIR      62  51  67 SE6       30.07F                  
$$
 
CTZALL-201900-
CONNECTICUT
  
CITY           SKY/WX    TMP DP  RH WIND       PRES   REMARKS
BRADLEY INTL   CLOUDY    58  42  55 VRB3      30.07F                  
6HR MIN TEMP:  38; 6HR MAX TEMP:  58;                                

HARTFORD       FAIR      56  43  61 CALM      30.06F                  
BRIDGEPORT     CLOUDY    60  51  72 NE7       30.05F                  
DANBURY        CLOUDY    55  45  68 CALM      30.06F                  
GROTON         FAIR      60  49  66 SE8       30.06F                  
NEW HAVEN      PTSUNNY   62  52  69 E7        30.06S                  
CHESTER          N/A     59  48  67 SE6       30.06F                  
MERIDEN        PTSUNNY   57  44  62 CALM      30.07S                  
WILLIMANTIC    FAIR      58  46  64 S6        30.08F                  
OXFORD         CLOUDY    56  48  74 S8        30.07S                  
$$

MEZ002-015-021-024-NHZ003-005-008-011-012-014-VTZ005-008-201900-
NORTHERN NEW ENGLAND
  
CITY           SKY/WX    TMP DP  RH WIND       PRES   REMARKS
PORTLAND ME    PTSUNNY   54  43  66 E7        30.10F                  
6HR MIN TEMP:  35; 6HR MAX TEMP:  54;                                

BANGOR ME      PTSUNNY   56  37  49 S6        30.09F                  
CONCORD NH     FAIR      57  39  51 CALM      30.07F                  
MANCHESTER NH  PTSUNNY   59  41  51 W3        30.06F                  
NASHUA NH      FAIR      57  41  55 VRB3      30.07F                  
PORTSMOUTH NH  PTSUNNY   57  44  61 E8        30.06F                  
JAFFREY NH     CLOUDY    57  38  48 CALM      30.06S                  
KEENE NH       PTSUNNY   57  40  52 CALM      30.05F                  
BURLINGTON VT  CLOUDY    55  37  50 S10       30.00F                  
MT. WASHINGTON CLOUDY    37  27  65 SW17        N/A  WCI  28          
$$

NYZ052-076-201900-
EASTERN NEW YORK
  
CITY           SKY/WX    TMP DP  RH WIND       PRES   REMARKS
ALBANY         LGT RAIN  53  41  63 S6        30.05S                  
6HR MIN TEMP:  37; 6HR MAX TEMP:  53; 6HR PCP: TRACE;                

NEW YORK CITY  LGT RAIN  59  51  75 NE7       30.03F                  
6HR MIN TEMP:  52; 6HR MAX TEMP:  59; 6HR PCP:  0.01;                

$$
 
ANZALL-201900-
MARINE OBSERVATIONS
  
STATION/POSITION TIME  TEMP    WIND        PRES    VSBY  WAVE
                       AIR SEA DIR/SP/G                  HT/PER
                 (UTC) (F)     (DEG/KT/KT) (MB)    (MI)  (FT/S)
BOSTON BUOY      1750   56 57   90/  4/  6 1017.3F         1/11
BUZZARDS BAY     1700   57     170/  9/ 10 1018.8F
NANTUCKET SOUND  1750      57                N/A           1
MASS BAY-STELLWA 1704   56 57  130/  4/  6 1018.3F  1 7/8  1/ 3
ISLE OF SHOALS   1700   53      50/ 10/ 11 1018.6F
S OF BLOCK IS    1800      60                N/A           1/13
$$

......................KEY.........................
  SKY/WX - SKY CONDITION/PRESENT WEATHER
  TMP    - TEMPERATURE IN FAHRENHEIT
  DWPT   - DEWPOINT IN FAHRENHEIT
  RH     - RELATIVE HUMIDITY IN PERCENT
  WIND   - DIRECTION AND SPEED IN MPH
  PRES   - MEAN SEA LEVEL PRESSURE IN INCHES OF HG
  WCI    - WIND CHILL INDEX
  VSB    - VISIBILITY IN MILES
  HX     - HEAT INDEX
  TC     - TEMPERATURE IN CELSIUS
  VRB    - VARIABLE WIND DIRECTION
  N/A    - NOT AVAILABLE
  
      

Other recent Regional Weather Roundups

Tue Oct 22, 2:10am

Tue Oct 22, 2:00am

Tue Oct 22, 1:10am

Tue Oct 22, 1:00am

Tue Oct 22, 12:10am

Tue Oct 22, 12:00am

Mon Oct 21, 11:10pm

Mon Oct 21, 11:00pm

Mon Oct 21, 10:10pm

Mon Oct 21, 10:01pm

Mon Oct 21, 9:10pm

Mon Oct 21, 9:00pm

Mon Oct 21, 8:10pm

Mon Oct 21, 8:00pm

Mon Oct 21, 7:10pm

Mon Oct 21, 7:01pm

Mon Oct 21, 6:10pm

Mon Oct 21, 6:01pm

Mon Oct 21, 5:10pm

Mon Oct 21, 5:01pm

Mon Oct 21, 4:10pm

Mon Oct 21, 4:00pm

Mon Oct 21, 3:10pm

Mon Oct 21, 3:01pm

Mon Oct 21, 2:10pm

Mon Oct 21, 2:00pm

Mon Oct 21, 1:10pm

Mon Oct 21, 1:01pm

Mon Oct 21, 12:10pm

Mon Oct 21, 12:00pm

Mon Oct 21, 11:10am

Mon Oct 21, 11:00am

Mon Oct 21, 10:10am

Mon Oct 21, 10:00am

Mon Oct 21, 9:10am

Mon Oct 21, 9:00am

Mon Oct 21, 7:10am

Mon Oct 21, 7:00am

Mon Oct 21, 6:10am

Mon Oct 21, 6:00am

Mon Oct 21, 5:10am

Mon Oct 21, 5:00am

Mon Oct 21, 4:10am

Mon Oct 21, 4:00am

Mon Oct 21, 3:10am

Mon Oct 21, 3:00am

Mon Oct 21, 2:10am

Mon Oct 21, 2:01am

Mon Oct 21, 1:10am

Mon Oct 21, 1:00am

Mon Oct 21, 12:10am

Mon Oct 21, 12:00am

Sun Oct 20, 11:10pm

Sun Oct 20, 11:00pm

Sun Oct 20, 10:10pm

Sun Oct 20, 10:00pm

Sun Oct 20, 9:10pm

Sun Oct 20, 9:01pm

Sun Oct 20, 8:10pm

Sun Oct 20, 8:00pm

Sun Oct 20, 7:10pm

Sun Oct 20, 7:01pm

Sun Oct 20, 6:10pm

Sun Oct 20, 6:00pm

Sun Oct 20, 5:10pm

Sun Oct 20, 5:00pm

Sun Oct 20, 4:10pm

Sun Oct 20, 4:00pm

Sun Oct 20, 3:10pm

Sun Oct 20, 3:00pm

Sun Oct 20, 2:01pm

Sun Oct 20, 1:10pm

Sun Oct 20, 1:01pm

Sun Oct 20, 12:10pm

Sun Oct 20, 12:00pm

Sun Oct 20, 11:10am

Sun Oct 20, 11:00am

Sun Oct 20, 10:10am

Sun Oct 20, 10:00am

Sun Oct 20, 9:10am

Sun Oct 20, 9:00am

Sun Oct 20, 8:10am

Sun Oct 20, 8:00am

Sun Oct 20, 7:10am

Sun Oct 20, 7:00am

Sun Oct 20, 6:10am

Sun Oct 20, 6:00am

Sun Oct 20, 5:10am

Sun Oct 20, 5:00am

Sun Oct 20, 4:10am

Sun Oct 20, 4:00am

Sun Oct 20, 3:10am

Sun Oct 20, 3:00am

Sun Oct 20, 2:10am

Sun Oct 20, 2:00am

Sun Oct 20, 1:10am

Sun Oct 20, 1:00am

Sun Oct 20, 12:10am

Sun Oct 20, 12:00am

Sat Oct 19, 11:10pm

Sat Oct 19, 11:00pm

Sat Oct 19, 10:10pm

Sat Oct 19, 10:00pm

Sat Oct 19, 9:10pm

Sat Oct 19, 9:00pm

Sat Oct 19, 8:10pm

Sat Oct 19, 8:00pm

Sat Oct 19, 7:10pm

Sat Oct 19, 7:00pm

Sat Oct 19, 6:10pm

Sat Oct 19, 6:00pm

Sat Oct 19, 5:10pm

Sat Oct 19, 5:00pm

Sat Oct 19, 4:10pm

Sat Oct 19, 4:00pm

Sat Oct 19, 3:10pm

Sat Oct 19, 3:01pm

Sat Oct 19, 2:10pm

Sat Oct 19, 2:00pm

Sat Oct 19, 1:10pm

Sat Oct 19, 1:01pm

Sat Oct 19, 12:10pm

Sat Oct 19, 12:00pm

Sat Oct 19, 11:10am

Sat Oct 19, 11:01am

Sat Oct 19, 10:10am

Sat Oct 19, 10:00am

Sat Oct 19, 9:10am

Sat Oct 19, 9:00am

Sat Oct 19, 8:10am

Sat Oct 19, 8:00am

Sat Oct 19, 7:10am

Sat Oct 19, 7:00am

Sat Oct 19, 6:10am

Sat Oct 19, 6:00am

Sat Oct 19, 5:10am

Sat Oct 19, 5:00am

Sat Oct 19, 4:10am

Sat Oct 19, 4:00am

Sat Oct 19, 3:10am

Sat Oct 19, 3:00am

Meta data:

ID: 341b1e27-77f6-4843-b943-f3f30fc2845c
Link: https://api.weather.gov/products/341b1e27-77f6-4843-b943-f3f30fc2845c